sat.trackr.live / text

‹ back to catalog

STARLINK-3121

NORAD 49428 · 2021-104W

PAYLOAD ACTIVE UNKNOWN

§ Identity

Operator
Country
US
Launch date
2021-11-13
Launch site
AFETR
Launch vehicle
Mass (kg)
RCS (m²)

Purposes: comms

External: N2YO · Heavens-Above · Gunter

§ Orbital elements

Epoch: 2026-05-24T16:43:09.248448Z

Period
95.44 min
Inclination
53.2151°
Eccentricity
0.0001699
Mean motion
15.08840099 rev/d
Perigee alt
538.6 km
Apogee alt
540.9 km
Semi-major
6,917.9 km
B*
8.2865e-6
RAAN
247.8246°
Arg perigee
86.2864°
Mean anomaly
273.8322°
Rev number
25,011

§ Raw data

STARLINK-31211 49428U 21104W   26144.69663482 -.00000156  00000+0  82865-5 0  99922 49428  53.2151 247.8246 0001699  86.2864 273.8322 15.08840099250118

JSON: /api/v1/satellites/49428 · /tle

For live sub-satellite position, see the globe view (requires WebGL).

§ Visibility from observer

Set your observer location to see the next 7 days of passes ≥ 10°. The values pass through the URL so the page stays shareable.

No JS? Fill the form by hand. The geolocation button needs JavaScript.